FENGYUN 1C DEB, 29763

Orbit data source: Space-Track

FENGYUN 1C DEB, 29763 is space debris in SSO originally from a launch on Mon, 10 May 1999 UTC launched from the Taiyaun Space Center, China (TSC). Fengyun 1C debris stems from the Chinese weather satellite Fengyun-1C, which was intentionally destroyed by a Chinese anti-satellite missile in 2007. This event dramatically increased the amount of space debris, with thousands of trackable fragments posing hazards to satellites and human spaceflight. The Fengyun 1C debris cloud has become a focal point in discussions about space sustainability and the need for international regulations to prevent the creation of new debris.

Loading next visibility...
Identifier
29763, 1999-025BD
Orbit
SSO
Country
Flag of CNCN / PRC
Related business
Manufacturer
Unknown
Mission
Spacecraft
Bus & Motor
Unknown
Mass
Unknown
Launch date (UTC)
1999-05-10 (27 years ago)
Launch vehicle
Unknown
Launch site
Taiyaun Space Center, China (TSC)
Object type
Payload
Rocket body
Debris
Shape & HBR
Unknown shape, 0.2 m
Radar Cross Section
Medium (>0.1 m² and <1 m²)

Expand to show TLE details & history
Last TLE update: 17 hours ago

TLE from 17 hours ago
0 FENGYUN 1C DEB
1 29763U 99025BD  26257.70058387  .00000268  00000-0  16867-3 0  9999
2 29763  98.7918 234.5747 0128081 122.5205  51.2990 14.08071392  9347
Epoch: 2026-09-14T16:48Z
TLE epoch observation values (Epoch: 2026-09-14T16:48:50.446Z)
Latitude
4.87848°
Longitude
169.43974°
Altitude
811.082 km
Speed
7.477 km/s
True Right ascension
03h 41m 18s
True Declination
4° 50' 59"
Sunlit
Object was in daylight at epoch
Visualization orbit readout
Latitude
Unknown
Longitude
Unknown
Altitude
Unknown
Speed
Unknown
Apparent Right ascension
Unknown
Apparent Declination
Unknown
Sunlit
N/A
Visualization observer readout
Local Sidereal Time
02:14:22
Azimuth
Unknown
Elevation
Unknown
Doppler factor
Unknown
Orbital elements
Apogee altitude
955.904 km
Perigee altitude
770.41 km
Semi-major axis
7,241.294 km
Eccentricity
0.01281
Inclination
98.7918°
RAAN
234.5747°
Arg. of periapsis
122.5205°
True anomaly
52.45592°
Mean anomaly
51.299°
Eccentric anomaly
51.87631°
Mean motion
3.52224 °/min
Orbital period
102.21 mins
BSTAR
0.00016867
Loading maneuver chart data...
Computing Atmospheric mass density...
Loading historical data...
Loading historical data...
Loading historical data...
Loading historical data...
Loading historical data...
Loading historical data...
Loading historical data...

Documentation

Showing up to 5 results
|